STARLINK-11450, 62518

Orbit data source: Space-Track

STARLINK-11450, 62518 is a payload satellite owned by SpaceX/Seattle (US) in LEO that was launched on Wed, 08 Jan 2025 UTC via an FALCON 9 launch vehicle from the Air Force Eastern Test Range (AFETR). Payload-class satellites include a variety of spacecraft equipped with specific instruments for various scientific and technological missions. These include communications satellites like Starlink; space stations such as the ISS; scientific satellites like the Hubble; Earth observation satellites from companies like Planet Labs, Umbra, and HawkEye 360; GPS; miniature CubeSats for education and research; and military/defense satellites.

Loading next visibility...
Identifier
62518, 2025-004H
Orbit
LEO
Country
Flag of USUS
Related business
Manufacturer
SpaceX/Seattle
Mission
Operational Commercial Communications
Bus & Motor
STARLINK V2MD, Unknown motor
Mass
960 kg wet, ~910 kg dry
Launch date (UTC)
2025-01-08 (10 months ago)
Launch vehicle
FALCON 9
Launch site
Air Force Eastern Test Range (AFETR)
Object type
Payload
Rocket body
Debris
Shape & HBR
Box + 2 Pan, 18.1 m
Radar Cross Section
36.964 m², Large (>1 m²)

Expand to show TLE details & history
Last TLE update: 9 hours ago

TLE from 9 hours ago
0 STARLINK-11450
1 62518U 25004H   25308.78468289  .00222897  00000-0  16876-2 0  9993
2 62518  42.9991 103.6660 0003263 259.8334 100.2166 15.70932778 47565
Epoch: 2025-11-04T18:49Z
TLE epoch observation values (Epoch: 2025-11-04T18:49:56.601Z)
Latitude
-0.00001°
Longitude
136.91342°
Altitude
356.391 km
Speed
7.697 km/s
True Right ascension
06h 54m 39s
True Declination
0° 00' 00"
Sunlit
Object was in full shadow at epoch
Visualization orbit readout
Latitude
Unknown
Longitude
Unknown
Altitude
Unknown
Speed
Unknown
Apparent Right ascension
Unknown
Apparent Declination
Unknown
Sunlit
N/A
Visualization observer readout
Local Sidereal Time
00:16:32
Azimuth
Unknown
Elevation
Unknown
Doppler factor
Unknown
Orbital elements
Apogee altitude
360.41 km
Perigee altitude
356.014 km
Semi-major axis
6,736.349 km
Eccentricity
0.00033
Inclination
42.9991°
RAAN
103.666°
Arg. of periapsis
259.8334°
True anomaly
100.2534°
Mean anomaly
100.2166°
Eccentric anomaly
100.235°
Mean motion
3.9256 °/min
Orbital period
91.71 mins
BSTAR
0.0016876
Loading maneuver chart data...
Computing Atmospheric mass density...
Loading historical data...
Loading historical data...
Loading historical data...
Loading historical data...
Loading historical data...
Loading historical data...
Loading historical data...

Documentation

Showing up to 5 results
|